AirNav   Duncan Aviation - Near you to keep you flying
 
 1029 users online  

1J9 Fort Walton Beach Airport
Navarre, Florida, USA

GOING TO NAVARRE?


FAA INFORMATION EFFECTIVE 09 SEPTEMBER 2021

Location

FAA Identifier: 1J9
Lat/Long: 30-24-22.7000N 086-49-45.1000W
30-24.378333N 086-49.751667W
30.4063056,-86.8291944
(estimated)
Elevation: 22 ft. / 6.7 m (surveyed)
Variation: 01E (1985)
From city: 2 miles E of NAVARRE, FL
Time zone: UTC -5 (UTC -6 during Standard Time)
Zip code: 32566

Airport Operations

Airport use: Open to the public
Activation date: 05/1969
Control tower: no
ARTCC: JACKSONVILLE CENTER
FSS: GAINESVILLE FLIGHT SERVICE STATION
NOTAMs facility: GNV (NOTAM-D service available)
Attendance: 1000-DUSK
Wind indicator: yes
Segmented circle: no

Airport Communications

CTAF/UNICOM: 122.7
WX ASOS at DTS (19 nm E): 133.925 (850-654-7128)
WX ASOS at PNS (19 nm W): 121.25 (850-436-4799)
WX ASOS at NDZ (20 nm NW): PHONE 850-623-7210

Nearby radio navigation aids

VOR radial/distance  VOR name  Freq  Var
CEWr194/26.4CRESTVIEW VORTAC115.9003E
NUNr098/(26.5)SAUFLEY VOR108.8001E

 
NDB name  Hdg/Dist  Freq  Var  ID
PICKENS098/18.232602WPKZ .--. -.- --..

Airport Services

Airframe service: NONE
Powerplant service: NONE
Bottled oxygen: NONE
Bulk oxygen: NONE

Runway Information

Runway 18/36

Dimensions: 2100 x 65 ft. / 640 x 20 m
Surface: turf, in poor condition
BARE SPOTS SOFT & SANDY S OF MID POINT.
Runway edge markings: WHITE CONES.
Operational restrictions: DEP RWY 18; ARR RWY 36. RWY SLOPES TO 2 FT AT S END. UNLGTD BRUSH, TREES, PRKG & BLDG 65-125 FT W OF CNTRLN FULL LEN.
RUNWAY 18  RUNWAY 36
Latitude: 30-24.551792N30-24.205292N
Longitude: 086-49.750332W086-49.754368W
Elevation: 22.0 ft.2.0 ft.
Traffic pattern: leftleft
Runway heading: 180 magnetic, 181 true000 magnetic, 001 true
Markings: NSTDNSTD
Obstructions: 15 ft. bldg, 87 ft. from runway, 45 ft. left of centerline, 6:1 slope to clear3 ft. brush, 57 ft. from runway, 45 ft. right of centerline, 20:1 slope to clear

Airport Ownership and Management from official FAA records

Ownership: Privately-owned
Owner: BOOMER AVIATION INC.
P.O. BOX 1075
FORT WALTON, FL 32549
Phone 850-244-1313
Manager: SANDY WILLIAMS
P.O. BOX 1075, P.O. BOX
FT WALTON BEACH, FL 32549
Phone (850) 244-1313

Airport Operational Statistics

Aircraft based on the field: 8
Single engine airplanes: 8
    
Aircraft operations: avg 22/day *
91% local general aviation
9% transient general aviation
* for 12-month period ending 06 March 2018

Additional Remarks

BANNER TOWING.
HEL MORE THAN 2500 LB NA.
FOR CD CTC EGLIN APCH 850-882-9152 OR 850-882-9151.

Instrument Procedures

There are no published instrument procedures at 1J9.

Some nearby airports with instrument procedures:

KHRT - Hurlburt Field Airport (7 nm E)
2R4 - Peter Prince Field Airport (16 nm NW)
KVPS - Eglin Air Force Base/Destin-Fort Walton Beach Airport (16 nm E)
KDTS - Destin Executive Airport (19 nm E)
KPNS - Pensacola International Airport (19 nm W)
KNDZ - Whiting Field Naval Air Station South (20 nm NW)
 
Loc | Ops | Rwys | IFR | FBO | Links
Com | Nav | Svcs | Stats | Notes
Area around 1J9 (Fort Walton Beach Airport)
 
Road maps at: MapQuest Bing Google
 
Aerial photo
WARNING: Photo may not be current or correct
Aerial photo of 1J9 (Fort Walton Beach Airport)
Photo by Scott Jackson - PhotosFlorida.com
Photo taken 04-Oct-2007
looking north

Do you have a better or more recent aerial photo of Fort Walton Beach Airport that you would like to share? If so, please send us your photo.

 
Sectional chart

 
Airport distance calculator
Flying to Fort Walton Beach Airport? Find the distance to fly.

From to 1J9

Sunrise and sunset
Times for 19-Sep-2021
 Local
(UTC-5)
 Zulu
(UTC)
Morning civil twilight06:1111:11
Sunrise06:3511:35
Sunset18:4723:47
Evening civil twilight19:1100:11

Current date and time
Zulu (UTC)  20-Sep-2021 00:42:48
Local (UTC-5)  19-Sep-2021 19:42:48
 
METAR
KHRT 
8nm E 
192356Z AUTO 34003KT 10SM FEW190 BKN210 25/23 A2994 RMK AO2 SLP140 60000 T02540234 10281 20254 58003 $
KVPS 
17nm E 
192356Z AUTO 01003KT 10SM FEW015 SCT180 BKN200 26/23 A2994 RMK AO2 SLP145 60000 T02620228 10317 20262 55002 $
KDTS 
19nm E 
192353Z 00000KT 10SM FEW018 28/23 A2995 RMK AO2 SLP140 6//// T02780228 10300 20278 55002 PNO
KPNS 
19nm W 
192353Z 00000KT 10SM CLR 26/24 A2994 RMK AO2 SLP139 P0001 60013 T02560244 10289 20250 58002
TAF
KHRT 
8nm E 
191800Z 1918/2024 10009KT 8000 -SHRA SCT007 SCT020 BKN050 BKN150 QNH2994INS TEMPO 1918/1920 4800 TSRA BKN020CB BECMG 1920/1921 11006KT 9999 NSW SCT030 BKN120 QNH2992INS BECMG 2008/2009 09007KT 8000 -SHRA BKN030 BKN100 QNH2989INS BECMG 2018/2019 20012G18KT 8000 -SHRA VCTS BKN020CB BKN080 BKN150 QNH2987INS TX28/1920Z TN23/2010Z
KVPS 
17nm E 
191700Z 1917/2023 12010KT 9000 -SHRA VCTS SCT015 BKN030CB BKN250 QNH2993INS TEMPO 1917/1922 22010G15KT 4800 -TSRA BKN015CB BECMG 1921/1922 12007KT 9999 NSW BKN030 BKN200 QNH2991INS BECMG 2007/2008 09006KT 9999 SCT025 BKN080 BKN220 QNH2991INS BECMG 2017/2018 18009KT 9999 VCTS BKN020CB BKN035 QNH2988INS TEMPO 2018/2023 22010G15KT 4800 -TSRA BKN015CB TX29/1919Z TN23/2011Z
KPNS 
19nm W 
192159Z 1922/2018 12005KT P6SM SHRA VCTS BKN009 OVC020CB TEMPO 1922/1924 3SM TSRA BR BKN007CB FM200000 16006KT P6SM VCTS BKN050CB FM200600 VRB03KT P6SM FEW005 SCT010 BKN025 FM201200 VRB03KT P6SM BKN030
NOTAMs
Click for the latest NOTAMs
NOTAMs are issued by the DoD/FAA and will open in a separate window not controlled by AirNav.

 

 
 

Would you like to see your business listed on this page?

 If your business provides an interesting product or service to pilots, flight crews, aircraft, or users of the Fort Walton Beach Airport, you should consider listing it here.  To start the listing process, click on the button below
 
Add a business
 

Other Pages about Fort Walton Beach Airport

Update a link
 
Copyright © AirNav, LLC. All rights reserved. Privacy Policy  Contact